USA 130 (DSP 18)

Last updated on Jan. 22, 2020, 4:36 a.m. UTC

1 24737U 97008A   20021.68145747  .00000021  00000-0  00000+0 0  9996
2 24737  13.4938  21.0398 0001559  16.6764 336.3064  1.00282126  8157
UTC
Height (km)
Latitude
Longitude
Inclination
Orbital Period
UTC large
Height (km)
Speed (km/s)
/
Latitude / Longitude
Inclination (degrees)
Orbital Period (minutes)
Azimuth
Elevation
Range (km)
Doppler Factor
iOS Compass Heading
iOS Angle

Next 30 passes for location: Hong Kong

Rise time Rise Azimuth (degrees) Set time Set Azimuth (degrees) Duration Max altitude (degrees)

No matching passes for this satellites